Location: Chervonnoye
(48.6000°N, 34.4000°E)
Time: 13:00:12
(UTC+00:00)

KAITUO 1B - Pass Details

Date: 04 December 2021
Orbit: 486 x 507 km, 97.4° (Epoch: 28 January)

Event Time Altitude Azimuth Distance (km) Brightness Sun altitude
Rises 03:14:46 0° 29° (NNE) 2,632 ? -19.4°
Reaches altitude 10° 03:17:33 10° 51° (NE) 1,736 ? -18.9°
Maximum altitude 03:19:56 16° 91° (E) 1,390 ? -18.5°
Drops below altitude 10° 03:22:17 10° 130° (SE) 1,720 ? -18.2°
Sets 03:25:00 0° 153° (SSE) 2,593 ? -17.7°
